#timestamp,LO_Frequency,Hit,StdDev 
1637078415.1,286047001.6,P
1637078416.0,286047001.6,P
1637078435.8,286047002.1,P
1637078455.6,286047003.1,Y
1637078475.5,286047002.2,P
1637078495.3,286047004.4,P
1637078515.2,286047004.1,P
1637078535.9,286047003.7,Y
1637078555.7,286047002.7,P
1637078575.6,286047002.8,P
1637078595.4,286047001.9,P
1637078615.2,286047001.8,Y
1637078635.1,286047000.9,P
1637078636.0,286047000.9,N
1637078655.8,286047002.3,N
1637078675.7,286047001.4,N
1637078695.5,286047001.3,N
1637078715.3,286047006.5,Y
1637078735.2,286047004.7,P
1637078755.0,286047006.4,P
1637078755.9,286047006.4,P
1637078775.8,286047008.6,Y
1637078795.6,286047004.0,P
1637078815.4,286047003.6,P
1637078835.3,286047003.9,P
1637078855.1,286047003.2,Y
1637078875.9,286047000.6,P
1637078895.7,286047000.3,N
1637078915.5,286046998.6,N
1637078935.4,286047000.8,N
1637078955.2,286046999.9,N
1637078975.0,286046999.7,N
1637078975.9,286046999.7,N
1637078995.8,286047002.8,N
1637079015.6,286047002.2,N
1637079035.5,286047001.7,N
1637079055.3,286047005.6,Y
1637079075.1,286047003.8,P
1637079095.9,286047004.7,P
1637079115.7,286047007.4,P
1637079135.6,286047007.4,Y
1637079185.4,286047006.0,E
1637079195.3,286047003.6,N
1637079215.2,286046998.9,P
1637079235.0,286046998.1,N
1637079235.9,286046998.1,N
1637079255.8,286046998.1,N
1637079275.6,286047000.6,N
1637079295.4,286047000.9,N
1637079315.3,286047000.9,N
1637079335.1,286047000.3,N
1637079355.9,286047001.6,N
1637079375.7,286047004.2,N
1637079395.5,286047004.3,N
1637079415.4,286047004.3,N
1637079435.2,286047003.0,N
1637079455.0,286047005.4,N
1637079456.0,286047005.4,N
1637079475.8,286047005.0,N
1637079495.6,286047005.7,N
1637079515.5,286047003.0,N
1637079535.3,286047005.1,N
1637079555.1,286047004.7,N
1637079575.9,286047004.5,N
1637079595.7,286047007.3,N
1637079615.6,286047007.2,N
1637079635.4,286047005.6,N
1637079655.2,286047005.9,N
1637079675.1,286047005.1,N
1637079676.0,286047005.1,N
1637079695.8,286047005.7,N
1637079715.7,286047003.0,N
1637079735.5,286047005.7,N
1637079755.3,286047005.6,N
1637079775.2,286047004.7,N
1637079795.9,286047005.3,N
1637079815.7,286047007.6,Y
1637079835.6,286047003.9,P
1637079855.4,286047003.4,P
1637079875.3,286047003.8,P
1637079895.1,286047004.2,Y
1637079896.0,286047004.2,P
1637079915.8,286047001.0,P
1637079935.7,286047001.6,N
1637079955.5,286047004.3,Y
1637079975.4,286047001.9,P
1637079995.2,286047003.9,P
1637080015.0,286047005.5,P
1637080015.9,286047005.5,Y
1637080035.8,286047000.6,P
1637080055.6,286047000.6,N
1637080075.4,286047002.6,N
1637080095.3,286047002.7,N
1637080115.1,286047002.7,N
1637080135.9,286047002.3,N
1637080155.7,286047001.4,N
1637080175.5,286047003.5,Y
1637080195.4,286047002.6,P
1637080215.2,286047002.0,P
1637080235.0,286047001.4,P
1637080236.0,286047001.4,Y
1637080255.8,286046998.4,P
1637080275.6,286046999.3,N
1637080295.5,286046998.5,N
1637080315.3,286046999.9,N
1637080335.1,286047002.3,N
1637080355.9,286047000.7,N
1637080375.7,286046998.4,N
1637080395.6,286046999.4,N
1637080415.4,286046999.0,N
1637080435.2,286046999.2,N
1637080455.1,286047000.7,N
1637080456.0,286047000.7,N
1637080475.8,286047002.2,N
1637080495.6,286047004.4,Y
1637080515.5,286047003.6,P
1637080535.3,286047003.3,N
1637080555.2,286047007.3,P
1637080575.9,286047005.0,N
1637080595.7,286047005.0,N
1637080615.6,286047007.6,Y
1637080635.4,286047003.5,P
1637080655.2,286047004.1,P
1637080675.1,286047003.1,P
1637080676.0,286047003.1,Y
1637080695.8,286047000.4,P
1637080715.7,286047000.6,N
1637080735.5,286047000.5,N
1637080755.3,286046999.9,N
1637080775.2,286046999.7,N
1637080795.0,286047002.0,N
1637080795.9,286047002.0,N
1637080815.8,286047003.6,N
1637080835.6,286047005.3,Y
1637080885.5,286047004.0,E
1637080895.4,286046998.2,N
1637080915.2,286046998.0,P
1637080935.1,286046999.5,P
1637080936.0,286046999.5,N
1637080955.8,286046998.4,N
1637080975.6,286046999.9,N
1637080995.5,286047000.8,N
1637081015.3,286046999.1,N
1637081035.1,286046999.0,N
1637081055.9,286046999.3,N
1637081075.7,286046998.3,N
1637081095.6,286046999.0,N
1637081115.4,286046998.2,N
1637081135.2,286046999.3,N
1637081155.1,286046998.2,N
1637081156.0,286046998.2,N
1637081175.8,286046998.6,N
1637081195.7,286046999.7,N
1637081215.5,286047004.2,Y
1637081235.3,286047005.7,P
1637081255.2,286047005.3,N
1637081275.0,286047005.2,N
1637081275.9,286047005.2,N
1637081295.7,286047004.7,N
1637081315.6,286047007.6,Y
1637081335.4,286047001.6,P
1637081355.3,286047003.3,N
1637081375.1,286047003.7,P
1637081376.0,286047003.7,Y
1637081395.8,286047000.2,P
1637081415.7,286046998.5,N
1637081435.5,286046996.5,N
1637081455.3,286046997.4,N
1637081475.2,286046997.1,N
1637081495.0,286046996.6,N
1637081495.9,286046996.6,N
1637081515.8,286046997.8,N
1637081535.6,286046995.0,N
1637081555.4,286046995.1,N
1637081575.3,286046997.2,N
1637081595.1,286046997.3,N
1637081615.9,286046996.8,N
1637081635.7,286046994.9,N
1637081655.5,286046997.6,N
1637081675.4,286046996.9,N
1637081695.2,286046997.2,N
1637081715.0,286046997.2,N
1637081715.9,286046997.2,N
1637081735.8,286046998.7,N
1637081755.6,286046998.8,N
1637081775.5,286046999.1,N
1637081795.3,286046999.6,N
1637081815.1,286046998.6,N
1637081835.9,286046998.5,N
1637081855.7,286046999.3,N
1637081875.6,286047002.4,N
1637081895.4,286047001.5,N
1637081915.2,286047001.8,N
1637081935.1,286047001.9,N
1637081936.0,286047001.9,N
1637081955.8,286047003.7,N
1637081975.6,286047003.7,N
1637081995.5,286047003.8,N
